DW9403 Weather Reports


time (UTC)temp
C
wind
direction
speed
KPH
gust
KPH
rain 1hr
cm
rain 24hr
cm
rain mn
cm
humidity
%
barometer
mb
20260507114543 9 265 0.0 0.0 0.00 0.00 0.00 82 1019.2
20260507113045 10 288 0.0 0.0 0.00 0.00 0.00 83 1019.2
20260507111538 10 245 0.0 0.0 0.00 0.00 0.00 83 1019.3
20260507110037 10 290 0.0 0.0 0.00 0.00 0.00 84 1019.4
20260507104534 10 292 0.0 0.0 0.00 0.00 0.00 84 1019.4
20260507103034 10 264 0.0 0.0 0.00 0.00 0.00 84 1019.5
20260507101533 10 275 0.0 0.0 0.00 0.00 0.00 84 1019.5
20260507100037 10 269 0.0 0.0 0.00 0.00 0.00 84 1019.6
20260507094530 10 277 0.0 0.0 0.00 0.00 0.00 84 1019.7
20260507093030 10 287 0.0 0.0 0.00 0.00 0.00 83 1019.8
20260507091528 10 265 0.0 0.0 0.00 0.00 0.00 83 1019.8
20260507090026 10 273 0.0 0.0 0.00 0.00 0.00 83 1019.8
20260507084526 10 294 0.0 0.0 0.00 0.00 0.00 83 1020.0
20260507083025 10 292 0.0 0.0 0.00 0.00 0.00 83 1020.0
20260507081531 11 281 0.0 0.0 0.00 0.00 0.00 84 1020.0
20260507080022 11 286 0.0 0.0 0.00 0.00 0.00 84 1020.0
20260507074529 11 232 0.0 0.0 0.00 0.00 0.00 83 1020.0
20260507073020 11 232 0.0 0.0 0.00 0.00 0.00 83 1019.9
20260507071519 11 256 0.0 0.0 0.00 0.00 0.00 82 1019.8
20260507070017 11 255 0.0 0.0 0.00 0.00 0.00 82 1019.9
20260507064516 11 256 0.0 0.0 0.00 0.00 0.00 82 1019.8
20260507063015 11 253 0.0 0.0 0.00 0.00 0.00 82 1019.8
20260507061516 11 295 0.0 0.0 0.00 0.00 0.00 82 1019.8
20260507060013 11 296 0.0 0.0 0.00 0.00 0.00 81 1019.8
20260507054514 12 219 0.0 0.0 0.00 0.00 0.00 82 1019.7
20260507053014 12 290 0.0 0.0 0.00 0.00 0.00 81 1019.7
20260507051512 12 273 0.0 0.0 0.00 0.00 0.00 81 1019.7
20260507050010 12 280 0.0 0.0 0.00 0.00 0.00 80 1019.7
20260507044510 12 304 0.0 0.0 0.00 0.00 0.00 80 1019.8
20260507043010 12 302 0.0 0.0 0.00 0.00 0.00 80 1019.6
20260507041509 13 288 0.0 0.0 0.00 0.00 0.00 80 1019.5
20260507040009 13 292 0.0 0.0 0.00 0.00 0.00 80 1019.3
20260507034510 13 313 0.0 0.0 0.00 0.00 0.00 80 1019.0
20260507033008 13 300 0.0 0.0 0.00 0.00 0.00 79 1018.9
20260507031507 15 285 0.0 0.0 0.00 0.00 0.00 78 1018.6
20260507030007 15 289 0.0 0.0 0.00 0.00 0.00 76 1018.5
20260507024506 16 304 0.0 0.0 0.00 0.00 0.00 75 1018.3
20260507023006 16 306 0.0 0.0 0.00 0.00 0.00 74 1018.3
20260507021506 16 306 0.0 0.0 0.00 0.00 0.00 73 1018.4
20260507020007 16 313 0.0 0.0 0.00 0.00 0.00 72 1018.4
20260507014505 17 290 0.0 0.0 0.00 0.00 0.00 75 1018.5
20260507013010 17 294 0.0 0.0 0.00 0.00 0.00 74 1018.5
20260507011505 17 281 0.0 0.0 0.00 0.00 0.00 73 1018.5
20260507010012 17 355 0.0 0.0 0.00 0.00 0.00 72 1018.5
20260507004502 17 304 0.0 0.0 0.00 0.00 0.00 71 1018.5
20260507003002 18 304 0.0 0.0 0.00 0.00 0.00 69 1018.6
20260507001502 18 314 0.0 0.0 0.00 0.00 0.00 69 1018.5
20260507000001 18 314 0.0 0.0 0.00 0.00 0.00 67 1018.5
20260506234609 18 317 0.0 0.0 0.00 0.00 0.00 68 1018.4
20260506233002 17 229 0.0 0.0 0.00 0.00 0.00 69 1018.6
20260506231600 18 278 0.0 0.0 0.00 0.00 0.00 68 1018.7
20260506230059 17 100 0.0 0.0 0.00 0.00 0.00 70 1018.9
20260506224613 18 301 0.0 0.0 0.00 0.00 0.00 69 1019.0
20260506223102 18 277 1.6 0.0 0.00 0.00 0.00 71 1019.0
20260506221556 17 286 0.0 0.0 0.00 0.00 0.00 72 1019.2
20260506220105 17 202 0.0 0.0 0.00 0.00 0.00 73 1019.2
20260506214550 16 127 0.0 0.0 0.00 0.00 0.00 76 1019.1
20260506213049 16 298 0.0 0.0 0.00 0.00 0.00 77 1019.4
20260506211555 16 277 0.0 0.0 0.00 0.00 0.00 78 1019.6
20260506210045 16 286 0.0 0.0 0.00 0.00 0.00 79 1019.6
20260506204544 16 157 0.0 0.0 0.00 0.00 0.00 79 1019.5
20260506203043 16 148 0.0 0.0 0.00 0.00 0.00 80 1019.5
20260506201541 15 159 0.0 0.0 0.00 0.00 0.00 81 1019.6
20260506200039 15 284 0.0 0.0 0.00 0.00 0.00 82 1019.7
20260506194543 15 285 0.0 0.0 0.00 0.00 0.00 82 1019.9
20260506193036 15 215 0.0 0.0 0.00 0.00 0.00 82 1019.8
20260506191534 14 258 0.0 0.0 0.00 0.00 0.00 84 1019.7
20260506190033 14 167 0.0 0.0 0.00 0.00 0.00 83 1019.7
20260506184532 14 282 0.0 0.0 0.00 0.00 0.00 85 1019.7
20260506183030 13 180 0.0 0.0 0.00 0.00 0.00 85 1019.7
20260506181529 13 220 0.0 0.0 0.00 0.00 0.00 84 1019.6
20260506180027 13 251 0.0 0.0 0.00 0.00 0.00 84 1019.6
20260506174527 13 155 0.0 0.0 0.00 0.00 0.00 86 1019.4
20260506173026 13 211 0.0 0.0 0.00 0.00 0.00 85 1019.4
20260506171526 13 296 0.0 0.0 0.00 0.00 0.00 85 1019.5
20260506170024 13 281 0.0 0.0 0.00 0.00 0.00 87 1019.3
20260506164524 13 220 0.0 0.0 0.00 0.00 0.00 87 1019.3
20260506163024 13 149 0.0 0.0 0.00 0.00 0.00 88 1019.1
20260506161524 12 121 0.0 0.0 0.00 0.00 0.00 89 1019.0
20260506160035 12 105 0.0 0.0 0.00 0.00 0.00 90 1018.6
20260506154524 12 287 0.0 0.0 0.00 0.00 0.00 90 1019.3
20260506153021 12 289 0.0 0.0 0.00 0.00 0.00 90 1019.5
20260506151522 12 292 0.0 0.0 0.00 0.00 0.00 90 1019.4
20260506150019 12 286 0.0 0.0 0.00 0.00 0.00 90 1019.1
20260506144517 12 189 0.0 0.0 0.00 0.00 0.00 90 1018.9
20260506143016 12 169 0.0 0.0 0.00 0.00 0.00 91 1018.5
20260506141516 12 169 0.0 0.0 0.00 0.00 0.00 91 1018.7
20260506140014 11 169 0.0 0.0 0.00 0.00 0.00 91 1018.5
20260506134512 11 169 0.0 0.0 0.00 0.00 0.00 91 1018.4
20260506133011 11 248 0.0 0.0 0.00 0.00 0.00 90 1018.2
20260506131523 11 248 0.0 0.0 0.00 0.00 0.00 90 1018.1
20260506130010 11 248 0.0 0.0 0.00 0.00 0.00 90 1018.0
20260506124506 12 248 0.0 0.0 0.00 0.00 0.00 90 1017.9
20260506123006 12 248 0.0 0.0 0.00 0.00 0.00 89 1017.9
20260506121505 12 248 0.0 0.0 0.00 0.00 0.00 89 1017.9
20260506120007 12 248 0.0 0.0 0.00 0.00 0.00 89 1017.7